This is the latest recevied weather packets stored in our database for station/object KC9NPJ-13. If no packets are shown the sender has not sent any weather packets the latest 1 day(s).
| Time | Temp. | Humidity | Pressure | Rain* | Wind** | Luminosity | Snow |
|---|---|---|---|---|---|---|---|
| 1778115535 | 11.67° C | 76% | 1016.5 hPa | 0 mm | - | - | - |
| 1778115235 | 11.67° C | 75% | 1016.6 hPa | 0 mm | - | - | - |
| 1778114935 | 12.22° C | 73% | 1016.6 hPa | 0 mm | - | - | - |
| 1778114635 | 12.22° C | 70% | 1016.6 hPa | 0 mm | - | - | - |
| 1778114335 | 12.78° C | 70% | 1016.6 hPa | 0 mm | - | - | - |
| 1778114035 | 12.78° C | 68% | 1016.5 hPa | 0 mm | - | - | - |
| 1778113735 | 13.33° C | 65% | 1016.4 hPa | 0 mm | - | - | - |
| 1778113435 | 13.33° C | 63% | 1016.4 hPa | 0 mm | - | - | - |
| 1778113135 | 13.33° C | 62% | 1016.4 hPa | 0 mm | - | - | - |
| 1778112835 | 13.89° C | 60% | 1016.3 hPa | 0 mm | - | - | - |
| 1778112235 | 13.89° C | 60% | 1016 hPa | 0 mm | - | - | - |
| 1778111935 | 13.89° C | 60% | 1015.9 hPa | 0 mm | - | - | - |
| 1778111635 | 13.89° C | 63% | 1015.9 hPa | 0 mm | - | - | - |
| 1778111035 | 14.44° C | 65% | 1015.9 hPa | 0 mm | - | - | - |
| 1778110735 | 14.44° C | 62% | 1016 hPa | 0 mm | - | - | - |
| 1778109835 | 13.89° C | 63% | 1016 hPa | 0 mm | - | - | - |
| 1778109535 | 14.44° C | 63% | 1016 hPa | 0 mm | - | - | - |
| 1778109235 | 14.44° C | 61% | 1016.1 hPa | 0 mm | - | - | - |
| 1778095736 | 15° C | 65% | 1016.1 hPa | 0 mm | - | - | - |
| 1778095136 | 15.56° C | 69% | 1016.1 hPa | 0 mm | - | - | - |
| 1778094836 | 15° C | 65% | 1016.2 hPa | 0 mm | - | - | - |
| 1778094536 | 15° C | 69% | 1016.3 hPa | 0 mm | - | - | - |
| 1778094236 | 15° C | 68% | 1016.4 hPa | 0 mm | - | - | - |
| 1778093936 | 15° C | 67% | 1016.5 hPa | 0 mm | - | - | - |
| 1778093636 | 15° C | 65% | 1016.7 hPa | 0 mm | - | - | - |
* Rain latest hour (hover to see other rain measurements)
** Current wind speed in m/s (hover to see current wind gust speed)